GW6599 Weather Reports


time (UTC)temp
C
wind
direction
speed
KPH
gust
KPH
rain 1hr
cm
rain 24hr
cm
rain mn
cm
humidity
%
barometer
mb
20260906114122 21 0.0 0.0 0.00 4.29 0.00 98
20260906113703 21 0.0 0.0 0.00 4.29 0.00 98
20260906113122 21 0.0 0.0 0.00 4.29 0.00 98
20260906112623 21 9 0.0 1.6 0.00 4.29 0.00 98
20260906112125 21 0.0 0.0 0.00 4.29 0.00 98
20260906111622 21 0.0 0.0 0.00 4.29 0.00 98
20260906111123 21 280 1.6 1.6 0.00 4.29 0.00 98
20260906110623 21 308 1.6 1.6 0.00 4.29 0.00 98
20260906110123 21 285 0.0 0.0 0.00 4.29 0.00 98
20260906105703 21 283 3.2 3.2 0.00 4.29 0.00 98
20260906105143 21 239 3.2 4.8 0.00 4.29 0.00 98
20260906104623 21 0.0 0.0 0.00 4.29 0.00 98
20260906104023 21 0.0 0.0 0.00 4.29 0.00 98
20260906103523 21 0.0 0.0 0.00 4.29 0.00 98
20260906103024 21 291 3.2 3.2 0.00 4.29 0.00 98
20260906102524 21 120 0.0 1.6 0.00 4.29 0.00 98
20260906102044 21 290 3.2 3.2 0.00 4.29 0.00 98
20260906101525 21 305 3.2 3.2 0.00 4.29 0.00 98
20260906101025 21 224 1.6 3.2 0.00 4.29 0.00 98
20260906100544 21 293 0.0 0.0 0.00 4.29 0.00 98
20260906100024 21 0.0 0.0 0.00 4.29 0.00 98
20260906095524 21 273 1.6 3.2 0.00 4.29 0.00 98
20260906095025 21 0.0 0.0 0.00 4.29 0.00 98
20260906094525 21 287 3.2 3.2 0.00 4.29 0.00 98
20260906094024 21 295 0.0 0.0 0.00 4.29 0.00 98
20260906093545 21 322 1.6 3.2 0.00 4.29 0.00 98
20260906093025 21 306 3.2 3.2 0.00 4.29 0.00 98
20260906092525 21 0.0 0.0 0.00 4.29 0.00 98
20260906092047 21 0.0 0.0 0.00 4.29 0.00 98
20260906091525 21 0.0 0.0 0.00 4.29 0.00 98
20260906091025 21 302 3.2 3.2 0.00 4.29 0.00 98
20260906090525 21 0.0 0.0 0.00 4.29 0.00 98
20260906090025 21 256 0.0 0.0 0.00 4.29 0.00 98
20260906085526 21 108 0.0 0.0 0.00 4.29 0.00 98
20260906085026 21 0.0 0.0 0.00 4.29 0.00 98
20260906084608 21 0.0 0.0 0.00 4.29 0.00 98
20260906084025 21 0.0 0.0 0.00 4.29 0.00 98
20260906083545 21 0.0 0.0 0.00 4.29 0.00 98
20260906083026 21 117 1.6 1.6 0.00 4.29 0.00 97
20260906082526 21 0.0 0.0 0.00 4.29 0.00 98
20260906082026 21 278 3.2 3.2 0.00 4.29 0.00 98
20260906081526 21 284 3.2 3.2 0.00 4.29 0.00 97
20260906081046 21 301 3.2 3.2 0.00 4.29 0.00 97
20260906080526 21 291 1.6 3.2 0.00 4.29 0.00 97
20260906080047 21 48 1.6 1.6 0.00 4.29 0.00 97
20260906075707 21 256 0.0 1.6 0.00 4.29 0.00 98
20260906075027 21 32 1.6 1.6 0.00 4.29 0.00 98
20260906074526 21 110 0.0 0.0 0.00 4.29 0.00 97
20260906074026 21 288 1.6 3.2 0.00 4.29 0.00 97
20260906073527 21 128 1.6 3.2 0.00 4.29 0.00 98
20260906073027 21 0.0 0.0 0.00 4.29 0.00 97
20260906072527 21 264 0.0 0.0 0.00 4.29 0.00 97
20260906072028 21 276 3.2 3.2 0.00 4.29 0.00 97
20260906071527 21 298 3.2 3.2 0.00 4.29 0.00 97
20260906071027 21 226 1.6 3.2 0.00 4.29 0.00 97
20260906070527 21 261 1.6 3.2 0.00 4.29 0.00 97
20260906070031 21 280 3.2 3.2 0.00 4.29 0.00 97
20260906065527 21 295 3.2 3.2 0.00 4.29 0.00 97
20260906065027 21 0.0 0.0 0.00 4.29 0.00 97
20260906064527 21 0.0 0.0 0.00 4.29 0.00 97
20260906064028 -17 59 1.6 1.6 0.00 4.29 0.00
20260906063548 21 341 1.6 3.2 0.00 4.29 0.00 97
20260906063028 21 312 3.2 3.2 0.00 4.29 0.00 97
20260906062528 21 302 0.0 0.0 0.00 4.29 0.00 97
20260906062028 21 0.0 0.0 0.00 4.29 0.00 97
20260906061528 21 342 0.0 0.0 0.00 4.29 0.00 97
20260906061028 21 0.0 0.0 0.00 4.29 0.00 97
20260906060528 21 0.0 0.0 0.00 4.29 0.00 97
20260906060029 21 276 3.2 3.2 0.00 4.29 0.00 97
20260906055529 21 299 3.2 3.2 0.00 4.29 0.00 97
20260906055029 21 294 3.2 3.2 0.00 4.29 0.00 97
20260906054528 21 288 0.0 0.0 0.00 4.29 0.00 97
20260906054028 22 289 3.2 3.2 0.00 4.29 0.00 97
20260906053529 21 258 3.2 3.2 0.00 4.29 0.00 97
20260906053029 21 340 0.0 1.6 0.00 4.29 0.00 97
20260906052529 21 240 1.6 3.2 0.00 4.29 0.00 97
20260906052029 22 15 0.0 1.6 0.00 4.29 0.00 97
20260906051549 21 57 0.0 1.6 0.00 4.29 0.00 97
20260906051051 21 85 1.6 3.2 0.00 4.29 0.00 97
20260906050529 22 1 0.0 0.0 0.00 4.29 0.00 97
20260906045729 22 0.0 0.0 0.00 4.29 0.00 97
20260906045229 22 0.0 0.0 0.00 4.29 0.00 97
20260906044729 22 0.0 0.0 0.00 4.29 0.00 97
20260906044229 22 0.0 0.0 0.00 4.29 0.00 97
20260906043730 22 0.0 0.0 0.00 4.29 0.00 97
20260906043230 22 0.0 0.0 0.00 4.29 0.00 97
20260906042715 22 101 0.0 1.6 0.00 4.29 0.00 97
20260906042230 22 0.0 0.0 0.00 4.29 0.00 97
20260906041756 22 302 1.6 1.6 0.00 4.29 0.00 97
20260906041250 22 0.0 0.0 0.00 4.29 0.00 97
20260906040715 22 0.0 0.0 0.00 4.29 0.00 97
20260906040215 22 0.0 0.0 0.00 4.29 0.00 97
20260906035715 22 263 1.6 3.2 0.00 4.29 4.29 97
20260906035238 22 261 1.6 3.2 0.00 4.29 4.29 97
20260906034715 22 289 1.6 1.6 0.00 4.29 4.29 97
20260906034216 22 0.0 0.0 0.00 4.29 4.29 97
20260906033716 22 0.0 0.0 0.00 4.29 4.29 97
20260906033216 22 0.0 0.0 0.00 4.29 4.29 97
20260906032716 22 259 1.6 3.2 0.00 4.29 4.29 97
20260906032217 22 277 1.6 1.6 0.00 4.29 4.29 97
20260906031716 22 314 0.0 1.6 0.00 4.29 4.29 97
20260906031217 22 0.0 0.0 0.00 4.29 4.29 97
20260906030717 22 0.0 0.0 0.00 4.29 4.29 97
20260906030217 22 0.0 0.0 0.00 4.29 4.29 97
20260906025838 22 290 1.6 3.2 0.00 4.29 4.29 97
20260906025217 22 0.0 0.0 0.00 4.29 4.29 97
20260906024717 22 0.0 0.0 0.00 4.29 4.29 97
20260906024237 22 0.0 0.0 0.00 4.29 4.29 97
20260906023718 22 264 1.6 1.6 0.00 4.29 4.29 97
20260906023237 22 250 1.6 3.2 0.00 4.29 4.29 97
20260906022717 22 342 0.0 0.0 0.00 4.29 4.29 97
20260906022237 22 291 1.6 3.2 0.00 4.29 4.29 97
20260906021717 22 0.0 0.0 0.00 4.29 4.29 97
20260906021218 22 308 0.0 1.6 0.00 4.29 4.29 97
20260906020717 22 260 1.6 3.2 0.00 4.29 4.29 97
20260906020218 22 0.0 0.0 0.00 4.29 4.29 97
20260906015718 22 306 0.0 1.6 0.00 4.29 4.29 97
20260906015218 22 9 0.0 0.0 0.00 4.29 4.29 97
20260906014738 22 295 1.6 3.2 0.00 4.29 4.29 96
20260906014218 22 296 3.2 3.2 0.00 4.29 4.29 96
20260906013718 22 0.0 0.0 0.00 4.29 4.29 96
20260906013218 22 0.0 0.0 0.00 4.29 4.29 96
20260906012718 22 263 0.0 3.2 0.00 4.29 4.29 96
20260906012239 22 279 1.6 3.2 0.00 4.29 4.29 96
20260906011718 22 334 0.0 0.0 0.00 4.29 4.29 96
20260906011216 22 294 1.6 3.2 0.00 4.29 4.29 96
20260906010739 22 294 1.6 3.2 0.00 4.29 4.29 96
20260906010216 22 275 0.0 1.6 0.00 4.29 4.29 96
20260906005736 22 261 3.2 3.2 0.00 4.29 4.29 96
20260906005216 22 283 1.6 3.2 0.00 4.29 4.29 96
20260906004716 22 299 0.0 1.6 0.00 4.29 4.29 96
20260906004216 22 310 1.6 4.8 0.00 4.29 4.29 96
20260906003716 22 271 3.2 6.4 0.00 4.29 4.29 96
20260906003216 22 285 3.2 4.8 0.00 4.29 4.29 96
20260906002716 22 254 3.2 4.8 0.00 4.29 4.29 96
20260906002217 22 57 0.0 1.6 0.00 4.29 4.29 96
20260906001717 22 260 3.2 6.4 0.00 4.29 4.29 96
20260906001237 22 0.0 0.0 0.00 4.29 4.29 96
20260906000717 22 65 0.0 1.6 0.00 4.29 4.29 96
20260906000219 22 257 0.0 0.0 0.00 4.29 4.29 96
20260905235717 22 301 1.6 3.2 0.00 4.29 4.29 96
20260905235217 22 0.0 0.0 0.00 4.29 4.29 96
20260905234717 22 0.0 0.0 0.00 4.29 4.29 96
20260905234217 22 0.0 0.0 0.03 4.29 4.29 96
20260905233718 22 297 1.6 3.2 0.05 4.29 4.29 96
20260905233217 22 0.0 0.0 0.10 4.29 4.29 96
20260905232717 22 115 0.0 0.0 0.30 4.29 4.29 95
20260905232217 22 124 0.0 0.0 0.86 4.29 4.29 95
20260905231737 22 120 0.0 0.0 1.60 4.29 4.29 95
20260905231217 22 0.0 0.0 2.59 4.29 4.29 95
20260905230717 22 49 0.0 0.0 3.48 4.29 4.29 95
20260905230218 22 0.0 0.0 3.84 4.29 4.29 95
20260905225736 22 304 4.8 4.8 3.86 4.29 4.29 94
20260905225218 22 175 0.0 3.2 3.89 4.29 4.29 94
20260905224738 22 260 3.2 4.8 4.11 4.29 4.29 94
20260905224218 22 248 4.8 8.0 4.27 4.27 4.27 93
20260905223719 21 259 6.4 8.0 4.24 4.24 4.24 94
20260905223219 21 307 4.8 4.8 4.19 4.19 4.19 93
20260905222719 22 314 4.8 6.4 3.96 3.96 3.96 90
20260905222219 22 35 14.5 22.5 3.43 3.43 3.43 91
20260905221719 23 145 14.5 29.0 2.69 2.69 2.69 90
20260905221219 25 75 14.5 17.7 1.68 1.68 1.68 90
20260905220719 26 89 8.0 14.5 0.81 0.81 0.81 84
20260905220219 26 110 4.8 8.0 0.46 0.46 0.46 88
20260905215719 28 116 4.8 8.0 0.43 0.43 0.43 80
20260905215216 31 85 8.0 14.5 0.38 0.38 0.38 68
20260905214717 36 103 4.8 12.9 0.18 0.18 0.18 57
20260905214216 37 226 3.2 6.4 0.00 0.00 0.00 45
20260905213717 38 326 1.6 4.8 0.00 0.00 0.00 39
20260905213216 37 306 0.0 4.8 0.00 0.00 0.00 38
20260905212716 37 319 4.8 9.7 0.00 0.00 0.00 39
20260905212217 37 257 4.8 8.0 0.00 0.00 0.00 41
20260905211717 37 316 4.8 8.0 0.00 0.00 0.00 42
20260905211217 37 291 4.8 6.4 0.00 0.00 0.00 42
20260905210717 37 243 3.2 6.4 0.00 0.00 0.00 40
20260905210217 37 273 4.8 6.4 0.00 0.00 0.00 42
20260905205717 37 242 4.8 8.0 0.00 0.00 0.00 39
20260905205237 37 260 4.8 8.0 0.00 0.00 0.00 40
20260905204717 37 282 6.4 11.3 0.00 0.00 0.00 41
20260905204217 37 250 3.2 6.4 0.00 0.00 0.00 41
20260905203758 38 302 3.2 6.4 0.00 0.00 0.00 40
20260905203218 37 260 3.2 4.8 0.00 0.00 0.00 40
20260905202737 37 285 1.6 3.2 0.00 0.00 0.00 41
20260905202218 37 270 4.8 8.0 0.00 0.00 0.00 41
20260905201758 37 305 3.2 6.4 0.00 0.00 0.00 41
20260905201215 37 251 6.4 12.9 0.00 0.00 0.00 41
20260905200718 37 311 3.2 11.3 0.00 0.00 0.00 41
20260905200215 37 25 1.6 4.8 0.00 0.00 0.00 41
20260905195715 37 307 4.8 9.7 0.00 0.00 0.00 43
20260905195215 37 314 3.2 6.4 0.00 0.00 0.00 42
20260905194715 37 315 4.8 6.4 0.00 0.00 0.00 42
20260905194216 36 313 4.8 6.4 0.00 0.00 0.00 43
20260905193736 37 314 3.2 4.8 0.00 0.00 0.00 44
20260905193216 37 293 3.2 3.2 0.00 0.00 0.00 42
20260905192715 36 290 1.6 3.2 0.00 0.00 0.00 42
20260905192216 36 312 3.2 6.4 0.00 0.00 0.00 43
20260905191716 37 313 4.8 8.0 0.00 0.00 0.00 43
20260905191216 37 292 3.2 6.4 0.00 0.00 0.00 43
20260905190716 37 263 3.2 4.8 0.00 0.00 0.00 42
20260905190216 37 287 3.2 6.4 0.00 0.00 0.00 42
20260905185736 37 264 1.6 4.8 0.00 0.00 0.00 42
20260905185216 37 320 3.2 4.8 0.00 0.00 0.00 44
20260905184716 37 332 0.0 6.4 0.00 0.00 0.00 41
20260905184216 36 279 1.6 6.4 0.00 0.00 0.00 42
20260905183716 36 266 0.0 1.6 0.00 0.00 0.00 42
20260905183216 36 249 1.6 4.8 0.00 0.00 0.00 43
20260905182716 36 87 0.0 1.6 0.00 0.00 0.00 44
20260905182239 36 321 3.2 6.4 0.00 0.00 0.00 45
20260905181716 37 87 3.2 4.8 0.00 0.00 0.00 45
20260905181217 37 313 3.2 6.4 0.00 0.00 0.00 43
20260905180716 36 205 1.6 3.2 0.00 0.00 0.00 44
20260905180217 37 125 1.6 3.2 0.00 0.00 0.00 43
20260905175737 37 311 3.2 8.0 0.00 0.00 0.00 43
20260905175217 37 163 3.2 8.0 0.00 0.00 0.00 43
20260905174717 36 307 0.0 1.6 0.00 0.00 0.00 44
20260905174237 36 321 3.2 8.0 0.00 0.00 0.00 46
20260905173718 36 307 4.8 8.0 0.00 0.00 0.00 45
20260905173217 36 147 3.2 6.4 0.00 0.00 0.00 46
20260905172717 36 66 3.2 6.4 0.00 0.00 0.00 45
20260905172218 36 314 3.2 4.8 0.00 0.00 0.00 46
20260905171718 35 343 0.0 3.2 0.00 0.00 0.00 46
20260905171218 36 314 3.2 4.8 0.00 0.00 0.00 48
20260905170718 36 318 3.2 8.0 0.00 0.00 0.00 47
20260905170215 36 307 1.6 6.4 0.00 0.00 0.00 46
20260905165715 36 314 1.6 4.8 0.00 0.00 0.00 47
20260905165216 35 81 3.2 6.4 0.00 0.00 0.00 48
20260905164715 36 322 1.6 4.8 0.00 0.00 0.00 50
20260905164316 36 309 1.6 4.8 0.00 0.00 0.00 47
20260905163718 36 356 0.0 1.6 0.00 0.00 0.00 47
20260905163215 36 324 3.2 6.4 0.00 0.00 0.00 46
20260905162715 36 66 0.0 3.2 0.00 0.00 0.00 47
20260905162216 35 56 1.6 3.2 0.00 0.00 0.00 47
20260905161715 35 162 3.2 4.8 0.00 0.00 0.00 47
20260905161216 35 331 3.2 4.8 0.00 0.00 0.00 49
20260905160716 35 130 1.6 8.0 0.00 0.00 0.00 49
20260905160216 35 237 4.8 9.7 0.00 0.00 0.00 50
20260905155716 35 85 3.2 9.7 0.00 0.00 0.00 48
20260905155216 35 88 3.2 4.8 0.00 0.00 0.00 49
20260905154716 34 297 3.2 8.0 0.00 0.00 0.00 51
20260905154216 34 47 1.6 6.4 0.00 0.00 0.00 51
20260905153716 35 164 4.8 8.0 0.00 0.00 0.00 49
20260905153216 35 243 0.0 0.0 0.00 0.00 0.00 48
20260905152736 34 326 3.2 6.4 0.00 0.00 0.00 51
20260905152216 33 336 0.0 3.2 0.00 0.00 0.00 52
20260905151717 32 318 3.2 4.8 0.00 0.00 0.00 56
20260905151217 32 328 3.2 4.8 0.00 0.00 0.00 56
20260905150717 32 320 3.2 4.8 0.00 0.00 0.00 56
20260905150217 32 317 6.4 8.0 0.00 0.00 0.00 56
20260905145717 32 288 1.6 4.8 0.00 0.00 0.00 57
20260905145217 32 313 3.2 4.8 0.00 0.00 0.00 58
20260905144737 32 322 4.8 8.0 0.00 0.00 0.00 58
20260905144217 32 327 3.2 3.2 0.00 0.00 0.00 57
20260905143717 32 318 3.2 6.4 0.00 0.00 0.00 60
20260905143217 32 310 4.8 6.4 0.00 0.00 0.00 59
20260905142717 33 99 0.0 4.8 0.00 0.00 0.00 58
20260905142217 32 327 1.6 3.2 0.00 0.00 0.00 58
20260905141717 32 41 0.0 1.6 0.00 0.00 0.00 60
20260905141217 32 326 0.0 1.6 0.00 0.00 0.00 60
20260905140717 32 0.0 0.0 0.00 0.00 0.00 60
20260905140218 31 325 0.0 1.6 0.00 0.00 0.00 61
20260905135718 31 315 0.0 1.6 0.00 0.00 0.00 61
20260905135238 31 0.0 0.0 0.00 0.00 0.00 64
20260905134718 30 357 0.0 1.6 0.00 0.00 0.00 67
20260905134318 30 0.0 0.0 0.00 0.00 0.00 70
20260905133718 29 0.0 0.0 0.00 0.00 0.00 70
20260905133238 28 0.0 0.0 0.00 0.00 0.00 73
20260905132715 28 0.0 0.0 0.00 0.00 0.00 75
20260905132215 28 0.0 0.0 0.00 0.00 0.00 77
20260905131715 27 0.0 0.0 0.00 0.00 0.00 77
20260905131235 27 0.0 0.0 0.00 0.00 0.00 79
20260905130715 27 0.0 0.0 0.00 0.00 0.00 80
20260905130216 26 0.0 0.0 0.00 0.00 0.00 81
20260905125716 26 0.0 0.0 0.00 0.00 0.00 81
20260905125216 26 0.0 0.0 0.00 0.00 0.00 82
20260905124736 25 0.0 0.0 0.00 0.00 0.00 84
20260905124216 25 84 0.0 1.6 0.00 0.00 0.00 85
20260905123716 23 0.0 0.0 0.00 0.00 0.00 89
20260905123216 23 0.0 0.0 0.00 0.00 0.00 91
20260905122716 23 95 0.0 1.6 0.00 0.00 0.00 92
20260905122216 23 54 0.0 0.0 0.00 0.00 0.00 95
20260905121716 22 0.0 0.0 0.00 0.00 0.00 96
20260905121216 22 0.0 0.0 0.00 0.00 0.00 96
20260905120716 22 0.0 0.0 0.00 0.00 0.00 96
20260905120217 22 0.0 0.0 0.00 0.00 0.00 96
20260905115717 22 0.0 0.0 0.00 0.00 0.00 96
20260905115217 22 0.0 0.0 0.00 0.00 0.00 96
20260905114717 22 0.0 0.0 0.00 0.00 0.00 96